AO-07 1 07530U 74089B 16294.02624111 -.00000034 00000-0 64084-4 0 9996 2 07530 101.5927 261.8169 0012426 68.2944 335.1243 12.53623693918765 FO-29 1 24278U 96046B 16294.72922029 -.00000040 00000-0 -21443-5 0 9998 2 24278 98.5822 203.5055 0349430 237.4843 119.2086 13.53071262996497 RS-22 1 27939U 03042A 16294.83546644 .00000235 00000-0 50732-4 0 9992 2 27939 97.9067 81.8038 0011680 265.4871 201.1838 14.66472563698232 AO-73 1 39444U 13066AE 16294.20903106 .00000520 00000-0 71605-4 0 9993 2 39444 97.6662 342.3992 0057947 333.4456 26.3792 14.81218971156085 EO-79 1 40025U 14033R 16294.73359082 .00000630 00000-0 74356-4 0 9999 2 40025 97.9190 200.0978 0013189 18.3422 341.8268 14.88174432126874 XW-2A 1 40903U 15049E 16294.83459572 .00003189 00000-0 89073-4 0 9992 2 40903 97.4411 311.5484 0016885 49.9570 310.3152 15.37344446 60857 XW-2C 1 40906U 15049H 16294.83146409 .00001438 00000-0 82705-4 0 9997 2 40906 97.4550 299.2390 0014602 328.9981 31.0388 15.13980504 60014 LILACSAT-2 1 40908U 15049K 16294.80274708 .00000776 00000-0 47786-4 0 9994 2 40908 97.4616 299.0063 0015300 322.6987 37.3180 15.12781577 59977 UO-11 1 14781U 84021B 16294.75332750 .00000154 00000-0 25386-4 0 9998 2 14781 97.7340 342.8110 0007067 262.4646 97.5765 14.82812665754864 LO-19 1 20442U 90005G 16293.99526645 .00000049 00000-0 33831-4 0 9998 2 20442 98.5514 227.2403 0012546 133.3793 226.8438 14.32834598397226 AO-27 1 22825U 93061C 16294.12408357 .00000026 00000-0 27585-4 0 9999 2 22825 98.7758 251.2383 0007706 318.9923 41.0679 14.29972918203097 IO-26 1 22826U 93061D 16294.83966174 .00000038 00000-0 32126-4 0 9994 2 22826 98.7703 252.0693 0008078 306.3525 53.6910 14.30299417203368 GO-32 1 25397U 98043D 16293.89536490 .00000011 00000-0 23451-4 0 9996 2 25397 098.5796 235.6688 0001453 028.3473 331.7785 14.23605803949389 NO-44 1 26931U 01043C 16294.14559450 .00000016 00000-0 38113-4 0 9991 2 26931 67.0526 350.5220 0005414 270.7042 89.3438 14.30430347786018 SO-50 1 27607U 02058C 16294.78237505 .00000092 00000-0 34084-4 0 9990 2 27607 64.5539 137.1007 0053527 187.7668 172.2612 14.75229929743791 CO-55 1 27844U 03031E 16294.49099858 .00000082 00000-0 56752-4 0 9995 2 27844 98.6932 300.9825 0009086 326.2723 33.7875 14.21986457690251 CO-57 1 27848U 03031J 16294.49677404 .00000063 00000-0 48814-4 0 9997 2 27848 98.7027 301.1401 0009136 335.6906 24.3839 14.21608482690140 CO-65 1 32785U 08021C 16294.81516970 .00000401 00000-0 49692-4 0 9994 2 32785 97.5915 323.7350 0011896 237.5817 122.4249 14.87701554459301 PRISM 1 33493U 09002B 16294.82720896 .00001270 00000-0 12098-3 0 9990 2 33493 98.1980 160.7388 0015744 148.0035 212.2127 14.95233960420009 TISAT-1 1 36799U 10035E 16294.84040453 .00000780 00000-0 86807-4 0 9991 2 36799 98.0409 47.1498 0013224 38.6798 321.5364 14.90054456340135 ALMASAT-1 1 38078U 12006B 16294.82008915 .00019187 36906-5 24011-3 0 9996 2 38078 69.4479 50.9161 0360412 280.5110 75.5640 15.10083535248509 DUCHIFAT-1 1 40021U 14033M 16294.71159016 .00000914 00000-0 10175-3 0 9991 2 40021 97.9228 201.4685 0013750 15.7622 344.4020 14.89540463126944 NANOSATCBR1 1 40024U 14033Q 16294.74341417 .00000767 00000-0 87692-4 0 9990 2 40024 97.9199 200.7374 0013019 16.4843 343.6795 14.88917500126918 DTUSAT-2 1 40030U 14033W 16294.67868903 .00000592 00000-0 70838-4 0 9993 2 40030 97.9164 199.3861 0012504 13.0604 347.0934 14.87805554126835 ANTELSAT 1 40034U 14033AA 16294.65863063 .00000825 00000-0 13130-3 0 9997 2 40034 97.8841 179.5784 0059240 343.9148 16.0171 14.73513194125656 MET-2/21 1 22782U 93055A 16294.83386206 .00000085 00000-0 63421-4 0 9994 2 22782 82.5517 213.5189 0023233 25.3348 33.2227 13.83794575168598 NOAA-15 1 25338U 98030A 16294.49102173 .00000022 00000-0 28353-4 0 9999 2 25338 98.7853 298.9077 0010635 176.8505 183.2743 14.25759164958848 NOAA-18 1 28654U 05018A 16294.53009067 .00000035 00000-0 44243-4 0 9990 2 28654 99.1970 304.7205 0014726 27.4224 332.7721 14.12310344588429 NOAA-19 1 33591U 09005A 16294.50237266 .00000089 00000-0 73665-4 0 9996 2 33591 99.0566 252.3968 0013186 223.9443 136.0680 14.12117813396820 HUBBLE 1 20580U 90037B 16294.33229167 .00000790 00000-0 38107-4 0 9998 2 20580 28.4690 152.1880 0002915 112.6770 249.3935 15.08555996254023 ISS 1 25544U 98067A 16294.91947917 .00004169 00000-0 69808-4 0 9994 2 25544 51.6432 150.9160 0007186 93.8381 104.9650 15.54285331 24546 CO-58 1 28895U 05043F 16294.71470445 .00000258 00000-0 58581-4 0 9994 2 28895 97.8419 102.4211 0016951 177.0724 183.0582 14.63279448585466 AAUSAT2 1 32788U 08021F 16293.67280217 .00001247 00000-0 12366-3 0 9998 2 32788 97.5903 332.3627 0011361 208.0108 152.0502 14.93484225459779 DO-64 1 32789U 08021G 16294.77849068 .00002984 00000-0 22056-3 0 9992 2 32789 97.5923 351.7593 0013118 190.5985 169.4966 15.03909220460877 CO-66 1 32791U 08021J 16293.84189739 .00000752 00000-0 83533-4 0 9993 2 32791 97.5915 326.3878 0012426 227.7154 132.3012 14.89954474459353 RS-30 1 32953U 08025A 16294.76024481 .00000036 00000-0 18819-3 0 9990 2 32953 82.5073 28.5538 0019918 89.7805 270.5557 12.43072255381672 JUGNU 1 37839U 11058B 16294.75783103 .00000317 00000-0 27496-4 0 9994 2 37839 19.9606 102.2168 0019018 64.2619 59.8450 14.12558185259805 SRMSAT 1 37841U 11058D 16293.98870786 .00000331 00000-0 36804-4 0 9994 2 37841 19.9711 143.6263 0011852 322.9837 186.0574 14.10555212259338 AO-71 1 37854U 11061E 16294.82585975 .00002248 00000-0 12959-3 0 9992 2 37854 101.6985 40.8539 0170941 62.8996 298.9538 15.03013833270965 HRBE 1 37855U 11061F 16294.80176522 .00002171 00000-0 12317-3 0 9998 2 37855 101.7105 38.7982 0184186 68.0037 294.0630 15.01949354270840 HORYU-2 1 38340U 12025D 16294.59529259 .00000434 00000-0 72397-4 0 9999 2 38340 98.3659 284.2559 0011276 340.0947 19.9820 14.75157671237969 RS-40 1 38735U 12041C 16294.83209092 .00000001 00000-0 -67651-4 0 9990 2 38735 82.4717 113.4389 0016685 187.6412 172.4416 12.42573847191965 BEESAT-3 1 39134U 13015E 16294.76000263 .00002037 00000-0 10292-3 0 9995 2 39134 64.8703 278.5994 0018145 302.5387 57.4497 15.16694785193158 BEESAT-2 1 39136U 13015G 16294.76864398 .00001895 00000-0 10270-3 0 9991 2 39136 64.8712 286.1134 0017724 308.8117 51.1931 15.14212132193012 ZACUBE-1 1 39417U 13066B 16294.18128737 .00000424 00000-0 60520-4 0 9996 2 39417 97.6650 341.6187 0058845 335.9279 23.9185 14.80523218157260 TRITON-1 1 39427U 13066M 16294.02538801 .00000419 00000-0 75146-4 0 9991 2 39427 97.6569 319.2945 0115464 38.4585 322.4779 14.67295730155825 GOMX-1 1 39430U 13066Q 16294.78914163 .00000660 00000-0 12868-3 0 9996 2 39430 97.6651 306.1621 0153386 79.0865 282.7524 14.58703851155031 LO-74 1 39440U 13066AA 16294.70072960 .00000370 00000-0 59189-4 0 9995 2 39440 97.6597 333.2511 0080835 358.0913 1.9977 14.75277735156784 SPROUT 1 39770U 14029E 16294.78294389 .00001808 00000-0 21433-3 0 9997 2 39770 97.8739 30.6347 0009932 39.4529 320.7392 14.85734838130583 EO-80 1 40032U 14033Y 16294.71037232 .00000601 00000-0 71942-4 0 9991 2 40032 97.9171 199.4264 0012434 13.3049 346.8493 14.87739977126833 VELOX-1 1 40057U 14034E 16294.75028266 .00001113 00000-0 16584-3 0 9999 2 40057 98.1925 25.4299 0012335 104.2851 255.9727 14.76878785124418 DAURIA DX 1 1 40071U 14037C 16294.75071782 .00000522 00000-0 74930-4 0 9992 2 40071 98.3321 30.5045 0009761 100.0769 260.1544 14.80901188123539 UKUBE-1 1 40074U 14037F 16294.83003254 .00001145 00000-0 14717-3 0 9991 2 40074 98.3382 33.2709 0005777 102.3991 257.7824 14.83249914123696 HODOYOSHI-1 1 40299U 14070B 16294.81715799 .00002121 00000-0 96605-4 0 9991 2 40299 97.4231 15.0280 0012529 205.9177 269.5307 15.21709496108531 CHUBUSAT-1 1 40300U 14070C 16294.75528513 .00002333 00000-0 11021-3 0 9996 2 40300 97.4181 12.8402 0019794 216.5998 259.4787 15.20254231108406 QSAT-EOS 1 40301U 14070D 16294.78687833 .00004531 00000-0 19996-3 0 9992 2 40301 97.4113 12.3840 0027557 215.9496 261.1919 15.21933981108409 FIREBIRD FU3 1 40377U 15003B 16294.65484814 .00003691 00000-0 16429-3 0 9996 2 40377 99.1001 65.4770 0141579 75.3931 286.2946 15.13739380 94759 FIREBIRD FU4 1 40378U 15003C 16294.84853119 .00003728 00000-0 16567-3 0 9990 2 40378 99.1003 65.7286 0141769 74.6868 286.9977 15.13760774 94784 GRIFEX 1 40379U 15003D 16294.80834591 .00002385 00000-0 11278-3 0 9992 2 40379 99.1006 64.4158 0146644 79.6058 282.1658 15.11707961 94708 NO-84 1 40654U 15025D 16294.39340648 .00021882 00000-0 43321-3 0 02575 2 40654 054.9982 224.5144 0199180 025.9453 335.1279 15.28469590043169 NO-83 1 40655U 15025E 16294.24237422 .00033575 00000-0 58793-3 0 02835 2 40655 054.9841 214.0370 0176455 031.3521 329.7710 15.34910193043274 DEORBITSAIL 1 40719U 15032E 16294.19229784 .00000805 00000-0 12492-3 0 9990 2 40719 98.0013 184.6318 0015985 191.0497 169.0363 14.75746965 68921 NUDT-PHONESAT 1 40900U 15049B 16294.79510909 .00003120 00000-0 15703-3 0 9999 2 40900 97.4460 300.3773 0014167 347.4035 12.6843 15.17869797 60126 XW-2D 1 40907U 15049J 16294.76225763 .00001547 00000-0 88559-4 0 9995 2 40907 97.4517 299.0028 0013934 327.7575 32.2804 15.14046646 60003 XW-2F 1 40910U 15049M 16294.81798951 .00002038 00000-0 11345-3 0 9993 2 40910 97.4545 299.3914 0014773 325.6590 34.3686 15.14674457 59906 XW-2B 1 40911U 15049N 16294.82949023 .00001503 00000-0 86167-4 0 9994 2 40911 97.4563 299.3154 0013830 327.7868 32.2517 15.14022141 59915 DCBB 1 40912U 15049P 16294.74353006 .00003527 00000-0 18306-3 0 9993 2 40912 97.4529 300.4593 0015069 321.5957 156.2244 15.16685125 59986 TW-1C 1 40926U 15051B 16294.80874949 .00011315 00000-0 29627-3 0 9994 2 40926 97.2620 330.4436 0012065 324.0598 123.6038 15.38801162 60067 TW-1A 1 40928U 15051D 16294.87407612 .00004410 00000-0 13494-3 0 9995 2 40928 97.2571 328.8879 0013268 344.7104 140.9945 15.34277029 59987 IO-86 1 40931U 15052B 16293.70751323 .00000676 00000-0 51264-5 0 9991 2 40931 5.9977 147.3351 0013176 79.8393 280.3195 14.76489772 57361 GomX-3 1 40949U 98067HA 16292.18357804 .08527750 12374-4 77882-3 0 9992 2 40949 51.6055 106.7696 0006699 286.1344 73.8944 16.38002265 59645 LQSat 1 40958U 15057A 16294.71882578 .00000266 00000-0 49184-4 0 9996 2 40958 98.0047 7.8945 0019398 111.1821 249.1461 14.72913791 55869 AO-85 1 40967U 15058D 16294.34190718 .00000476 00000-0 71707-4 0 02873 2 40967 064.7777 226.3053 0188351 164.6909 195.9992 14.75200322041733 ATHENOXAT-1 1 41168U 15077C 16294.72585729 .00004305 00000-0 21316-3 0 9995 2 41168 14.9900 117.5588 0013192 302.0716 146.9621 15.10619004 46764 ChubuSat-2 1 41338U 16012B 16294.13610620 .00000679 00000-0 47038-4 0 9998 2 41338 31.0027 196.6161 0014111 204.0862 155.9114 14.99538578 36929 ChubuSat-3 1 41339U 16012C 16294.76387402 .00001044 00000-0 75605-4 0 9995 2 41339 31.0115 192.1750 0014087 216.8378 143.1280 14.99762982 36996 Horyu-4 1 41340U 16012D 16293.89922118 .00001070 00000-0 76531-4 0 9997 2 41340 031.0047 196.6129 0014497 213.8710 146.1000 15.00264925036892 OUFTI-1 1 41458U 16025C 16294.24212917 .00005377 00000-0 29561-3 0 9994 2 41458 98.2131 311.9218 0178312 11.5234 348.9983 15.01935749 26546 [email protected] 1 41459U 16025D 16294.17817710 .00005153 00000-0 28387-3 0 9996 2 41459 98.2122 311.8396 0178523 11.7858 348.7449 15.01865998 26533 AAUSAT4 1 41460U 16025E 16294.68301868 .00005868 00000-0 32510-3 0 9992 2 41460 98.2015 312.4255 0173064 8.5992 351.8080 15.02303438 26617 MinXSS 1 41474U 98067HU 16294.82895375 .00027297 00000-0 27151-3 0 9995 2 41474 51.6411 145.4952 0002790 224.2757 135.8016 15.65506758 24555 CADRE 1 41475U 98067HV 16294.84214459 .00084443 00000-0 60296-3 0 9999 2 41475 51.6348 142.5351 0004318 223.1294 136.9366 15.73037759 24591 NODES 1 1 41477U 98067HX 16294.81552550 .00023317 00000-0 26164-3 0 9994 2 41477 51.6372 146.8792 0002575 208.2374 151.8481 15.62530767 24445 NODES 2 1 41478U 98067HY 16294.82037251 .00023188 00000-0 26118-3 0 9997 2 41478 51.6370 146.9101 0002475 208.2418 151.8442 15.62437421 24447 LO-87 1 41557U 16033B 16294.78159288 .00003803 00000-0 15022-3 0 9992 2 41557 97.4873 8.1536 0015801 127.7448 351.0237 15.26022402 21900 NuSat2 1 41558U 16033C 16294.72892649 .00003892 00000-0 15435-3 0 9998 2 41558 97.4902 8.1157 0015295 126.4960 351.1177 15.25885062 21895 Lapan A3 1 41603U 16040E 16294.89358531 .00000697 00000-0 36374-4 0 9998 2 41603 97.4968 353.2580 0013144 182.0028 264.0904 15.19169353 18321 Swayam 1 41607U 16040J 16293.88122173 .00002712 00000-0 13025-3 0 9998 2 41607 097.4943 352.2373 0014609 189.4434 170.6528 15.19623656018095 Pratham 1 41783U 16059A 16294.82064389 .00000228 00000-0 54027-4 0 9990 2 41783 98.2023 352.2216 0033423 188.9252 171.1348 14.62771036 3612 OBJECT B 1 41784U 16059B 16294.74635067 .00000395 00000-0 85791-4 0 9996 2 41784 98.2017 352.1604 0031527 189.7001 170.3592 14.63126425 3563 OBJECT C 1 41785U 16059C 16294.74486419 .00000420 00000-0 90572-4 0 9994 2 41785 98.2029 352.1629 0030963 188.0125 172.0543 14.63209895 3564 OBJECT D 1 41786U 16059D 16294.82245571 .00000267 00000-0 57287-4 0 9991 2 41786 98.2297 352.4341 0001201 83.1209 277.0122 14.66294932 3587 OBJECT E 1 41787U 16059E 16294.74086489 .00000283 00000-0 63824-4 0 9996 2 41787 98.2023 352.1695 0030286 188.3921 171.6769 14.63452327 3563 OBJECT F 1 41788U 16059F 16294.05425210 .00000218 00000-0 51184-4 0 9994 2 41788 98.2014 351.4911 0029594 192.4842 167.5623 14.63629192 3463 AlSat 1N 1 41789U 16059G 16294.80068952 .00000306 00000-0 67541-4 0 9996 2 41789 98.2029 352.2487 0028275 184.0525 176.0445 14.63963434 3587 ScatSat 1 41790U 16059H 16294.75949388 .00000126 00000-0 43288-4 0 9995 2 41790 98.1022 348.4704 0011544 157.8343 202.3350 14.50103424 3564 OBJECT J 1 41791U 16059J 16294.37524914 .00000164 00000-0 43234-4 0 9991 2 41791 98.2768 351.7870 0041773 197.4696 162.5066 14.60738509 3539 OBJECT K 1 41792U 16059K 16293.77389847 .00000881 00000-0 17627-3 0 9991 2 41792 098.2056 351.2369 0027148 192.7576 167.2937 14.64070025003426 /EX